#�ϑ�����,���ϕ���,���ϕ���,�ő啗��,�ő啗����������,�ő�u�ԕ���,�ő�u�ԕ�����������
#(�N����),(m/s)   ,(16����),(m/s)   ,(16����)        ,(m/s)       ,(16����)            
2012/9/15 0:30,2.4,3,2.4,3,2.7,3
2012/9/15 0:31,2.9,2,2.9,2,4.7,3
2012/9/15 0:32,2.1,2,2.8,2,3.1,2
2012/9/15 0:33,2.1,2,2.2,2,3.3,3
2012/9/15 0:34,2.4,2,2.4,2,5.4,3
2012/9/15 0:35,2.4,2,2.5,2,4.2,3
2012/9/15 0:36,2.3,2,2.4,2,2.7,3
2012/9/15 0:37,2.3,2,2.3,2,3.6,3
2012/9/15 0:38,2.4,2,2.4,2,5.1,3
2012/9/15 0:39,2.3,2,2.3,2,4.5,3
2012/9/15 0:40,2.4,2,2.4,2,5.5,3
2012/9/15 0:41,2.5,2,2.5,2,4.5,3
2012/9/15 0:42,2.6,2,2.6,2,3.8,3
2012/9/15 0:43,2.6,2,2.6,2,3.2,3
2012/9/15 0:44,2.5,2,2.6,2,4.4,3
2012/9/15 0:45,2.6,3,2.6,2,4.7,3
2012/9/15 0:46,2.7,3,2.7,3,2.9,3
2012/9/15 0:47,2.6,3,2.7,3,3.9,3
2012/9/15 0:48,2.7,3,2.7,3,4.5,3
2012/9/15 0:49,2.7,3,2.8,3,3.1,4
2012/9/15 0:50,2.5,3,2.7,3,3.5,2
2012/9/15 0:51,2.4,3,2.5,3,2.9,3
2012/9/15 0:52,2.5,3,2.5,3,4.1,3
2012/9/15 0:53,2.5,3,2.5,3,3.7,4
2012/9/15 0:54,2.4,3,2.5,3,2.9,4
2012/9/15 0:55,2.4,3,2.4,3,4.2,3
2012/9/15 0:56,2.6,3,2.6,3,4.2,4
2012/9/15 0:57,2.6,3,2.7,3,3.5,4
2012/9/15 0:58,2.6,3,2.6,3,3.8,4
2012/9/15 0:59,2.6,3,2.6,3,3.9,3
2012/9/15 1:00,2.7,3,2.7,3,4.9,3
2012/9/15 1:01,2.8,3,2.8,3,4.1,3
2012/9/15 1:02,2.8,3,2.8,3,4.7,3
2012/9/15 1:03,2.8,3,2.8,3,4.7,3
2012/9/15 1:04,2.9,3,2.9,3,5,2
2012/9/15 1:05,3,3,3,3,6.1,2
2012/9/15 1:06,3,3,3.1,3,6.7,4
2012/9/15 1:07,3.1,3,3.1,3,4.7,3
2012/9/15 1:08,3,3,3.1,3,3.6,3
2012/9/15 1:09,3,3,3,3,3.9,3
2012/9/15 1:10,3,3,3,3,4.7,4
2012/9/15 1:11,3.1,3,3.1,3,4.3,3
2012/9/15 1:12,3.1,3,3.1,3,4.4,3
2012/9/15 1:13,3.1,3,3.1,3,4.9,2
2012/9/15 1:14,3.2,3,3.2,3,4.9,2
2012/9/15 1:15,2.9,3,3.2,3,4.9,3
2012/9/15 1:16,2.9,3,2.9,3,5.4,2
2012/9/15 1:17,2.9,3,2.9,3,4.4,3
2012/9/15 1:18,2.9,3,2.9,3,3.9,2
2012/9/15 1:19,3,2,3,3,4.2,2
2012/9/15 1:20,2.9,2,3,3,4.2,3
2012/9/15 1:21,2.9,2,2.9,3,4.5,2
2012/9/15 1:22,2.8,2,2.9,3,3.5,3
2012/9/15 1:23,2.8,2,2.8,3,4.5,2
2012/9/15 1:24,2.7,2,2.8,3,3.7,2
2012/9/15 1:25,2.7,2,2.8,2,3.5,4
2012/9/15 1:26,2.6,2,2.7,2,3.3,2
2012/9/15 1:27,2.6,2,2.6,2,4.1,3
2012/9/15 1:28,2.6,2,2.6,2,3.7,3
2012/9/15 1:29,2.5,2,2.6,2,3.9,2
2012/9/15 1:30,2.5,2,2.5,2,3.7,3
2012/9/15 1:31,2.5,2,2.5,2,4.2,3
2012/9/15 1:32,2.7,2,2.7,2,5.4,2
2012/9/15 1:33,2.7,3,2.7,2,4.9,3
2012/9/15 1:34,2.9,3,2.9,3,6.1,3
2012/9/15 1:35,2.9,3,2.9,3,4.4,3
2012/9/15 1:36,3,3,3,3,4.4,3
2012/9/15 1:37,3.1,3,3.1,3,5.4,4
2012/9/15 1:38,3.1,3,3.2,3,4.9,4
2012/9/15 1:39,3.2,3,3.2,3,4.7,2
2012/9/15 1:40,3.1,3,3.2,3,4.5,3
2012/9/15 1:41,3.3,3,3.3,3,4.8,3
2012/9/15 1:42,3.2,3,3.3,3,4.2,2
2012/9/15 1:43,3.1,3,3.2,3,4.4,2
2012/9/15 1:44,3.1,3,3.1,3,5.8,3
2012/9/15 1:45,3.1,3,3.1,3,4.2,4
2012/9/15 1:46,3.1,3,3.1,3,5,3
2012/9/15 1:47,3.1,3,3.1,3,4.9,3
2012/9/15 1:48,3.3,3,3.3,3,6.7,3
2012/9/15 1:49,3.4,3,3.4,3,5.2,3
2012/9/15 2:57,1.6,3,1.6,3,1.8,1
2012/9/15 2:58,1.4,2,1.6,3,1.8,1
2012/9/15 2:59,1.2,2,1.3,3,1.4,3
2012/9/15 3:00,1.1,2,1.2,3,1.8,2
2012/9/15 3:01,1.3,2,1.3,3,2.5,1
2012/9/15 3:02,1.4,2,1.4,3,3,2
2012/9/15 3:03,1.4,2,1.4,3,2.2,3
2012/9/15 3:04,1.4,2,1.4,3,2.5,1
2012/9/15 3:05,1.4,2,1.4,3,2.5,2
2012/9/15 3:06,1.6,2,1.6,3,4.1,2
2012/9/15 3:07,1.6,2,1.6,3,3.9,3
2012/9/15 3:08,1.7,2,1.7,2,2.6,4
2012/9/15 3:09,1.7,2,1.7,2,2.7,1
2012/9/15 3:10,1.7,2,1.7,2,3,1
2012/9/15 3:11,1.7,2,1.8,2,3.3,3
2012/9/15 3:12,1.8,2,1.8,2,3.5,2
2012/9/15 3:26,1.9,3,1.9,3,1.9,3
2012/9/15 3:27,1.9,3,2.1,3,2.2,3
2012/9/15 3:28,1.5,2,1.7,3,2.6,2
2012/9/15 3:29,1.5,2,1.5,3,2.2,2
2012/9/15 3:30,1.7,2,1.7,3,3.8,3
2012/9/15 3:31,1.9,2,1.9,3,3.8,3
2012/9/15 3:32,1.9,2,1.9,3,2.9,1
2012/9/15 3:33,1.8,2,1.9,3,2.9,2
2012/9/15 3:34,1.8,2,1.8,3,3,2
2012/9/15 3:35,1.8,2,1.8,3,2.1,2
2012/9/15 3:36,1.7,2,1.7,3,2,3
2012/9/15 3:37,1.7,2,1.7,2,2.5,4
2012/9/15 3:38,1.7,2,1.7,2,2.6,1
2012/9/15 3:39,1.7,2,1.7,2,2,3
2012/9/15 3:40,1.7,2,1.8,2,2.7,4
2012/9/15 3:41,1.7,2,1.7,2,3.2,3
2012/9/15 3:42,1.7,2,1.7,2,3.6,3
2012/9/15 3:43,1.8,2,1.8,2,2.5,3
2012/9/15 3:44,1.7,2,1.8,2,2.4,2
2012/9/15 3:45,1.8,2,1.8,2,2.9,3
2012/9/15 3:46,1.9,3,1.9,3,3,3
2012/9/15 3:47,1.9,3,1.9,3,2.7,3
2012/9/15 3:48,1.9,3,2,3,2.7,3
2012/9/15 3:49,2,3,2,3,2.2,3
2012/9/15 3:50,1.9,3,2,3,1.8,3
2012/9/15 3:51,1.8,3,1.9,3,1.9,3
2012/9/15 3:52,1.7,3,1.8,3,1.9,4
2012/9/15 3:53,1.6,3,1.7,3,1.8,4
2012/9/15 3:54,1.6,3,1.6,3,1.4,4
2012/9/15 3:55,1.5,4,1.6,3,1.8,5
2012/9/15 3:56,1.5,4,1.5,3,2.4,3
2012/9/15 3:57,1.4,4,1.5,3,2.2,4
2012/9/15 3:58,1.4,4,1.4,3,2.1,4
2012/9/15 3:59,1.4,4,1.4,3,2.5,5
2012/9/15 4:00,1.4,4,1.4,3,2,4
2012/9/15 4:01,1.4,4,1.4,3,2.2,3
2012/9/15 4:02,1.5,4,1.5,3,2.7,4
2012/9/15 4:03,1.6,4,1.6,3,3,2
2012/9/15 4:04,1.8,4,1.8,4,3.2,2
2012/9/15 4:05,1.9,4,1.9,4,3.8,3
2012/9/15 4:06,2,4,2,4,3.1,4
2012/9/15 4:07,2,4,2,4,2.9,4
2012/9/15 4:08,2,4,2,4,2.4,4
2012/9/15 4:09,2,4,2,4,2.6,4
2012/9/15 4:10,2,3,2,4,2.6,3
2012/9/15 4:11,2.1,4,2.1,4,3.5,4
2012/9/15 4:12,2.2,4,2.2,4,3.8,4
2012/9/15 4:13,2.1,4,2.2,4,2.9,5
2012/9/15 4:14,2.1,4,2.1,4,2.7,4
2012/9/15 4:15,2,4,2.1,4,2.1,6
2012/9/15 4:16,1.9,4,2,4,2.4,3
2012/9/15 4:17,1.9,4,1.9,4,2.6,3
2012/9/15 4:18,1.9,4,1.9,4,3,3
2012/9/15 4:19,2,4,2,4,3.2,4
2012/9/15 4:20,2,4,2,4,2.7,3
2012/9/15 4:21,1.9,3,2,4,3.1,3
2012/9/15 4:22,1.8,3,1.9,4,2.4,3
2012/9/15 4:23,1.8,3,1.8,4,2.5,3
2012/9/15 4:24,1.8,3,1.8,4,2.5,3
2012/9/15 4:25,1.8,3,1.8,4,3,3
2012/9/15 4:26,1.8,3,1.9,4,3.5,2
2012/9/15 4:27,1.9,3,1.9,4,3.8,4
2012/9/15 4:28,2,3,2,4,4.1,3
2012/9/15 4:29,2,3,2,4,4.1,3
2012/9/15 4:30,2.1,3,2.1,3,3.9,3
2012/9/15 4:31,2.2,3,2.2,3,3.5,3
2012/9/15 4:32,2.3,3,2.3,3,3.8,3
2012/9/15 4:33,2.4,3,2.4,3,3.3,3
2012/9/15 4:34,2.5,3,2.5,3,3,3
2012/9/15 4:35,2.6,3,2.6,3,4.4,4
2012/9/15 4:36,2.7,3,2.7,3,4.3,3
2012/9/15 4:37,2.8,3,2.8,3,4.1,3
2012/9/15 4:38,2.7,3,2.8,3,2.7,3
2012/9/15 4:39,2.6,3,2.7,3,2.9,3
2012/9/15 4:40,2.5,3,2.6,3,3.3,3
2012/9/15 4:41,2.4,3,2.5,3,3.2,3
2012/9/15 4:42,2.3,3,2.4,3,2.4,4
2012/9/15 4:43,2.2,3,2.3,3,1.8,4
2012/9/15 4:44,2.1,3,2.2,3,2.1,3
2012/9/15 4:45,1.9,3,2.1,3,2.2,5
2012/9/15 4:46,1.7,3,1.9,3,2.5,4
2012/9/15 4:47,1.7,3,1.7,3,2.6,3
2012/9/15 4:48,1.7,3,1.7,3,3,2
2012/9/15 4:49,1.7,3,1.7,3,2.9,4
2012/9/15 4:50,1.7,3,1.7,3,2.7,2
2012/9/15 4:51,1.7,3,1.7,3,2.5,3
2012/9/15 4:52,1.7,3,1.7,3,2.9,4
2012/9/15 4:53,1.7,3,1.7,3,2.4,4
2012/9/15 4:54,1.7,3,1.7,3,2.5,4
2012/9/15 4:55,1.7,3,1.7,3,1.5,3
2012/9/15 4:56,1.6,3,1.7,3,1,1
2012/9/15 4:57,1.5,3,1.6,3,0.9,3
2012/9/15 4:58,1.3,3,1.4,3,1.1,3
2012/9/15 4:59,1.2,3,1.3,3,1.5,5
2012/9/15 5:00,1.1,3,1.2,3,1.4,6
2012/9/15 5:01,0.9,4,1.1,3,1,4
2012/9/15 5:02,0.8,4,0.9,3,1.6,8
2012/9/15 5:03,0.7,4,0.8,3,1,7
2012/9/15 5:04,0.7,4,0.7,3,2.5,5
2012/9/15 5:05,0.7,5,0.7,3,2,4
2012/9/15 5:06,0.7,5,0.7,3,1.4,5
2012/9/15 5:07,0.7,5,0.7,3,1.4,5
2012/9/15 5:08,0.7,5,0.7,3,1.5,3
2012/9/15 5:09,0.7,5,0.8,3,1.4,4
2012/9/15 5:10,0.7,5,0.7,3,0.9,5
2012/9/15 5:11,0.7,4,0.7,4,0.6,3
2012/9/15 5:12,0.7,4,0.7,4,1.1,4
2012/9/15 5:13,0.8,4,0.8,5,1.8,16
2012/9/15 5:14,0.7,3,0.8,5,1.6,16
2012/9/15 5:15,0.7,2,0.7,5,1,16
2012/9/15 5:16,0.7,2,0.7,5,1.5,1
2012/9/15 9:35,1.5,6,1.5,6,2.2,9
2012/9/15 9:36,2.9,6,2.9,6,4.5,6
2012/9/15 9:37,2.9,6,3.6,7,5.2,6
2012/9/15 9:38,2.1,6,2.7,7,2.2,6
2012/9/15 9:39,2,6,2.1,7,2.7,7
2012/9/15 9:40,1.8,6,1.9,7,2.5,4
2012/9/15 9:41,2,6,2,7,4.9,6
2012/9/15 9:42,2.3,6,2.3,7,5.4,5
2012/9/15 9:43,2.5,6,2.5,7,6.1,6
2012/9/15 9:44,2.6,6,2.6,7,4.7,5
2012/9/15 9:45,2.7,5,2.7,7,5.5,4
2012/9/15 9:46,2.7,5,2.7,7,4.5,4
2012/9/15 9:47,2.6,5,2.7,6,3.2,4
2012/9/15 9:48,2.6,5,2.7,5,2.5,4
2012/9/15 9:49,2.6,5,2.6,5,2.5,6
2012/9/15 11:24,1.5,3,1.5,3,1.8,4
2012/9/15 11:25,3.5,4,3.5,4,5.1,4
2012/9/15 11:26,4.3,3,4.4,3,6.4,4
2012/9/15 11:27,3.6,4,4.2,3,5.8,5
2012/9/15 11:28,3.4,5,3.6,3,4.9,6
2012/9/15 11:29,3.2,5,3.4,3,3.7,6
2012/9/15 11:30,3.5,6,3.5,3,7.5,6
2012/9/15 11:31,3.7,6,3.7,3,6,7
2012/9/15 11:32,3.5,6,3.7,3,5.7,6
2012/9/15 11:33,3.4,6,3.4,3,5,7
2012/9/15 11:34,3.4,6,3.4,3,5.8,7
2012/9/15 11:35,3.4,6,3.5,3,5.7,7
2012/9/15 11:36,3.2,7,3.4,3,5.1,8
2012/9/15 11:37,3.3,7,3.3,6,5.1,8
2012/9/15 11:38,3.2,7,3.3,6,4.7,7
2012/9/15 11:39,3.3,7,3.3,6,5.2,6
2012/9/15 11:40,3,7,3.3,6,5.6,8
2012/9/15 11:41,3,7,3,6,6.3,7
2012/9/15 11:42,3.1,8,3.1,6,5.4,8
2012/9/15 11:43,3.1,8,3.2,6,5,8
2012/9/15 11:44,3,8,3.1,6,4.4,8
2012/9/15 11:45,2.9,8,3,6,4.3,7
2012/9/15 11:46,2.8,8,2.9,7,4.1,6
2012/9/15 11:47,2.7,8,2.8,7,3.8,8
2012/9/15 11:48,2.7,7,2.7,7,3.2,7
2012/9/15 11:49,2.5,7,2.7,7,2.4,8
2012/9/15 11:50,2.5,7,2.5,8,5.7,5
2012/9/15 11:51,2.4,7,2.5,8,4.9,6
2012/9/15 11:52,2.5,7,2.5,8,6.3,6
2012/9/15 11:53,2.4,6,2.5,8,5.2,6
2012/9/15 11:54,2.4,6,2.4,8,4.1,7
2012/9/15 11:55,2.3,6,2.4,8,3.7,9
2012/9/15 11:56,2.4,6,2.4,8,4.1,6
2012/9/15 11:57,2.5,6,2.5,8,4.9,7
2012/9/15 11:58,2.4,6,2.5,7,3.8,8
2012/9/15 11:59,2.7,6,2.7,6,5.2,8
2012/9/15 12:00,2.9,6,2.9,6,7.5,6
2012/9/15 12:01,3.2,6,3.2,6,8.1,7
2012/9/15 12:02,3.3,6,3.3,6,7.7,8
2012/9/15 12:03,3.4,6,3.4,6,5.7,7
2012/9/15 12:04,3.5,7,3.5,7,5.6,8
2012/9/15 12:05,3.8,7,3.8,7,7.6,8
2012/9/15 12:06,3.8,7,3.8,7,6,6
2012/9/15 12:07,3.8,7,3.9,7,4.4,7
2012/9/15 12:08,3.9,7,3.9,7,3.9,5
2012/9/15 12:09,3.7,6,3.8,7,3.5,7
2012/9/15 12:10,3.4,6,3.7,7,2.5,5
2012/9/15 12:11,2.9,6,3.3,7,1.6,8
2012/9/15 12:12,2.7,6,2.8,7,6.2,6
2012/9/15 12:13,2.7,6,2.7,7,5,6
2012/9/15 12:14,2.5,6,2.7,7,3.8,5
2012/9/15 12:15,2.3,6,2.5,7,5.4,8
2012/9/15 12:16,2.2,6,2.3,7,5.4,7
2012/9/15 12:17,2.3,6,2.3,7,5.2,6
2012/9/15 12:18,2.4,6,2.4,7,7.1,7
2012/9/15 12:19,2.6,6,2.6,6,5.6,5
2012/9/15 12:20,2.6,6,2.6,6,3.1,4
2012/9/15 12:21,2.9,7,2.9,7,4.7,8
2012/9/15 12:22,2.8,7,2.9,7,5.4,7
2012/9/15 12:23,2.7,7,2.8,7,4.2,9
2012/9/15 12:24,2.8,7,2.8,7,4.2,7
2012/9/15 12:23,2.8,7,2.8,7,4.2,7
2012/9/15 12:24,2.8,7,2.8,7,4.2,7
2012/9/15 12:25,2.9,7,2.9,7,5.2,7
2012/9/15 12:26,3,7,3,7,6.1,6
2012/9/15 12:27,3.2,7,3.2,7,5.8,6
2012/9/15 12:28,3.2,7,3.2,7,6.9,7
2012/9/15 12:29,3.3,7,3.3,7,7.4,6
2012/9/15 12:30,3.5,7,3.5,7,7.2,7
2012/9/15 12:31,3.7,6,3.7,6,5.7,6
2012/9/15 12:32,3.7,6,3.8,6,4.5,4
2012/9/15 12:33,3.8,6,3.8,6,5.7,5
2012/9/15 12:34,4,5,4,6,7,5
2012/9/15 12:35,4.1,5,4.1,5,5.8,4
2012/9/15 12:36,3.9,5,4.1,5,4.2,6
2012/9/15 12:37,3.7,5,3.9,5,2.5,6
2012/9/15 12:38,3.6,5,3.7,5,4.7,6
2012/9/15 12:39,3.3,5,3.5,5,4.2,6
2012/9/15 12:40,3.3,5,3.3,5,6.5,5
2012/9/15 12:41,3.1,6,3.3,5,3.9,4
2012/9/15 12:50,2.4,7,2.4,7,2.5,7
2012/9/15 12:51,2.8,7,2.8,8,4.7,8
2012/9/15 12:52,3.3,7,3.5,7,7.6,7
2012/9/15 12:53,3.1,7,3.2,7,5.6,6
2012/9/15 12:54,3,7,3.1,7,6.1,6
2012/9/15 12:55,3.4,7,3.4,7,7.8,6
2012/9/15 12:56,3.7,7,3.7,7,9.4,7
2012/9/15 12:57,3.5,7,3.7,7,5.2,8
2012/9/15 12:58,3.5,7,3.6,7,5.8,8
2012/9/15 13:04,1.1,3,1.1,3,1.8,6
2012/9/15 13:05,3.8,6,3.8,6,6.9,6
2012/9/15 13:06,3.9,6,4.3,6,7.9,6
2012/9/15 13:07,3.9,6,3.9,6,6,6
2012/9/15 17:24,2.4,7,2.4,7,2.5,7
2012/9/15 17:25,1.9,7,2.4,7,3,6
2012/9/15 17:26,1.6,6,1.9,7,3,6
2012/9/15 17:27,1.7,6,1.7,7,2.9,5
2012/9/15 17:28,1.6,6,1.7,7,2.1,6
2012/9/15 17:29,1.4,6,1.6,7,1.8,11
2012/9/15 17:30,1.3,6,1.4,7,1.4,5
2012/9/15 17:31,1.3,6,1.3,7,1.5,7
2012/9/15 17:32,1.3,6,1.3,7,2.7,4
2012/9/15 17:33,1.5,6,1.5,7,4.3,5
2012/9/15 17:34,1.5,6,1.5,7,3.2,5
2012/9/15 17:35,1.6,6,1.6,7,3.3,6
2012/9/15 17:36,1.6,6,1.6,6,3.1,6
2012/9/15 20:55,3.1,1,3.1,1,3.1,1
2012/9/15 20:56,2.1,2,3.1,1,3.2,1
2012/9/15 20:57,1.8,1,2.1,1,2.4,1
2012/9/15 20:58,2,2,2,1,4.1,2
2012/9/15 20:59,2,2,2.1,1,3.2,2
2012/9/15 21:00,2.2,2,2.2,1,3.8,1
2012/9/15 21:01,2.2,2,2.2,1,3.3,3
2012/9/15 21:02,2.2,2,2.2,1,4.1,3
2012/9/15 21:03,2.1,2,2.2,1,2.7,1
2012/9/15 21:04,2.1,2,2.1,1,2.6,16
2012/9/15 21:05,2.1,2,2.1,1,3.5,3
2012/9/15 21:06,2.1,2,2.1,2,3.2,1
2012/9/15 21:07,2.2,2,2.2,2,3.7,1
2012/9/15 21:08,2.2,2,2.2,2,3.3,2
2012/9/15 21:09,2.3,2,2.3,2,3.5,2
2012/9/15 21:10,2.3,2,2.3,2,4.7,2
2012/9/15 21:11,2.2,2,2.2,2,2.7,1
2012/9/15 21:12,2.2,2,2.2,2,2.9,1
2012/9/15 21:13,2.2,2,2.2,2,2.9,1
2012/9/15 21:14,2.2,2,2.2,2,4.7,2
2012/9/15 21:15,2.2,2,2.2,2,3.8,1
2012/9/15 21:16,2.2,2,2.2,2,2.7,1
2012/9/15 21:17,2.1,2,2.2,2,4.1,1
2012/9/15 21:18,2.1,2,2.1,2,3,2
2012/9/15 21:19,2,2,2.1,2,3,1
2012/9/15 21:20,1.9,2,2,2,2.6,2
2012/9/15 21:21,2,2,2,2,3,16
2012/9/15 21:22,2,2,2,2,3.2,1
2012/9/15 21:23,2.1,2,2.1,2,4.2,2
2012/9/15 21:24,2.1,2,2.1,2,3.3,1
2012/9/15 21:25,2.1,2,2.1,2,4.1,1
2012/9/15 21:26,2.2,2,2.2,2,3.2,2
2012/9/15 21:27,2.2,2,2.2,2,3.7,2
2012/9/15 21:28,2.2,2,2.2,2,4.1,2
2012/9/15 21:29,2.3,2,2.3,2,3.9,2
2012/9/15 21:30,2.4,2,2.4,2,3.7,2
2012/9/15 21:31,2.4,2,2.4,2,3.6,1
2012/9/15 21:32,2.4,2,2.4,2,3.3,2
2012/9/15 21:33,2.3,2,2.4,2,2.7,3
2012/9/15 21:34,2.4,2,2.4,2,3.6,1
2012/9/15 21:35,2.3,2,2.4,2,2.9,1
2012/9/15 21:36,2.2,2,2.3,2,2.1,1
2012/9/15 21:37,2.1,2,2.2,2,2.9,1
2012/9/15 21:38,2.1,2,2.1,2,2.9,2
2012/9/15 21:39,2,2,2.1,2,2.7,2
2012/9/15 21:40,1.9,2,1.9,2,2.6,3
2012/9/15 21:41,1.9,2,1.9,2,3,2
2012/9/15 21:42,1.9,2,1.9,2,3.3,3
2012/9/15 21:43,1.9,2,1.9,2,3.2,3
2012/9/15 21:44,1.8,2,1.9,2,3.3,2
2012/9/15 21:45,1.8,2,1.8,2,2.7,3
2012/9/15 21:46,1.9,2,1.9,2,3.6,2
2012/9/15 21:47,2,2,2,2,3.9,3
2012/9/15 21:48,2,2,2,2,3.5,3
2012/9/15 21:49,2.1,2,2.1,2,3.2,3
2012/9/15 21:50,2.1,2,2.1,2,3.2,3
2012/9/15 21:51,2.1,2,2.2,2,2.7,3
2012/9/15 21:52,2.2,2,2.2,2,3.3,3
2012/9/15 21:53,2.1,2,2.2,2,2.7,2
2012/9/15 21:54,2.1,2,2.1,2,3,1
2012/9/15 21:55,2.1,2,2.1,2,3.3,1
2012/9/15 21:56,2.1,2,2.1,2,3,2
2012/9/15 21:57,2.1,2,2.1,2,3.3,1
2012/9/15 21:58,2.1,2,2.1,2,3.8,2
2012/9/15 21:59,2.1,2,2.1,2,3.2,1
2012/9/15 22:00,2.1,2,2.1,2,3.7,1
2012/9/15 22:01,2.2,2,2.2,2,3.8,3
2012/9/15 22:02,2.2,2,2.2,2,3.1,1
2012/9/15 22:03,2.2,2,2.2,2,3.7,1
2012/9/15 22:04,2.3,2,2.3,2,3.9,1
2012/9/15 22:05,2.3,2,2.3,2,3.9,2
2012/9/15 22:06,2.3,2,2.3,2,2.9,2
2012/9/15 22:07,2.3,2,2.3,2,3.9,2
